• In Hungary
  • List of Countries
  • For 7 days
  • Water Temperature
  • Satellite Maps
  • Weather Map
  • News
  • Weather Widgets
  • user-avatar
    Login

    Hourly Weather Hurghada

    Today, 25 September, Tuesday

    Time Temperature Precipitation Wind Pressure Humidity
    00:00 +28°C° 0 mm 2 mps 683 mmHg 29%
    01:00 +27°C° 0 mm 2 mps 683 mmHg 30%
    02:00 +27°C° 0 mm 3 mps 682 mmHg 31%
    03:00 +27°C° 0 mm 3 mps 682 mmHg 32%
    04:00 +26°C° 0 mm 3 mps 682 mmHg 33%
    05:00 +26°C° 0 mm 3 mps 682 mmHg 33%
    06:00 +27°C° 0 mm 3 mps 683 mmHg 31%
    07:00 +29°C° 0 mm 3 mps 683 mmHg 28%
    08:00 +30°C° 0 mm 3 mps 684 mmHg 25%
    09:00 +33°C° 0 mm 4 mps 684 mmHg 22%
    10:00 +35°C° 0 mm 4 mps 684 mmHg 19%
    11:00 +36°C° 0 mm 4 mps 685 mmHg 15%
    12:00 +37°C° 0 mm 4 mps 684 mmHg 15%
    13:00 +39°C° 0 mm 5 mps 684 mmHg 14%
    14:00 +39°C° 0 mm 5 mps 684 mmHg 13%
    15:00 +37°C° 0 mm 5 mps 683 mmHg 14%
    16:00 +36°C° 0 mm 5 mps 683 mmHg 16%
    17:00 +35°C° 0 mm 5 mps 683 mmHg 17%
    18:00 +34°C° 0 mm 4 mps 683 mmHg 20%
    19:00 +31°C° 0 mm 3 mps 683 mmHg 22%
    20:00 +30°C° 0 mm 3 mps 683 mmHg 24%
    21:00 +29°C° 0 mm 3 mps 683 mmHg 24%
    22:00 +28°C° 0 mm 2 mps 683 mmHg 24%
    23:00 +28°C° 0 mm 2 mps 683 mmHg 25%

    Tomorrow, 26 September, Wednesday

    Time Temperature Precipitation Wind Pressure Humidity
    00:00 +27°C° 0 mm 2 mps 682 mmHg 25%
    01:00 +27°C° 0 mm 2 mps 682 mmHg 25%
    02:00 +26°C° 0 mm 3 mps 682 mmHg 26%
    03:00 +26°C° 0 mm 3 mps 682 mmHg 27%
    04:00 +25°C° 0 mm 3 mps 681 mmHg 28%
    05:00 +25°C° 0 mm 3 mps 681 mmHg 30%
    06:00 +26°C° 0 mm 3 mps 682 mmHg 28%
    07:00 +27°C° 0 mm 3 mps 682 mmHg 26%
    08:00 +29°C° 0 mm 4 mps 683 mmHg 25%
    09:00 +30°C° 0 mm 4 mps 683 mmHg 21%
    10:00 +33°C° 0 mm 4 mps 684 mmHg 18%
    11:00 +35°C° 0 mm 4 mps 684 mmHg 15%
    12:00 +36°C° 0 mm 4 mps 684 mmHg 14%
    13:00 +36°C° 0 mm 5 mps 683 mmHg 13%
    14:00 +37°C° 0 mm 5 mps 683 mmHg 12%
    15:00 +36°C° 0 mm 5 mps 683 mmHg 14%
    16:00 +35°C° 0 mm 5 mps 682 mmHg 16%
    17:00 +34°C° 0 mm 5 mps 682 mmHg 18%
    18:00 +33°C° 0 mm 4 mps 682 mmHg 21%
    19:00 +30°C° 0 mm 3 mps 682 mmHg 23%
    20:00 +29°C° 0 mm 3 mps 683 mmHg 26%
    21:00 +28°C° 0 mm 2 mps 683 mmHg 27%
    22:00 +28°C° 0 mm 2 mps 683 mmHg 28%
    23:00 +27°C° 0 mm 2 mps 683 mmHg 28%

    Day after tomorrow, 27 September, Thursday

    Time Temperature Precipitation Wind Pressure Humidity
    00:00 +27°C° 0 mm 2 mps 682 mmHg 30%
    01:00 +26°C° 0 mm 2 mps 682 mmHg 31%
    02:00 +26°C° 0 mm 2 mps 682 mmHg 32%
    03:00 +25°C° 0 mm 3 mps 682 mmHg 33%
    04:00 +25°C° 0 mm 3 mps 682 mmHg 34%
    05:00 +24°C° 0 mm 3 mps 682 mmHg 35%
    06:00 +26°C° 0 mm 3 mps 682 mmHg 34%
    07:00 +27°C° 0 mm 3 mps 683 mmHg 34%
    08:00 +28°C° 0 mm 4 mps 684 mmHg 33%
    09:00 +29°C° 0 mm 3 mps 684 mmHg 29%
    10:00 +31°C° 0 mm 3 mps 684 mmHg 25%
    11:00 +33°C° 0 mm 3 mps 684 mmHg 21%
    12:00 +34°C° 0 mm 3 mps 684 mmHg 20%
    13:00 +35°C° 0 mm 3 mps 684 mmHg 20%
    14:00 +36°C° 0 mm 4 mps 684 mmHg 19%
    15:00 +35°C° 0 mm 4 mps 683 mmHg 21%
    16:00 +34°C° 0 mm 4 mps 683 mmHg 23%
    17:00 +33°C° 0 mm 4 mps 683 mmHg 25%
    18:00 +32°C° 0 mm 4 mps 684 mmHg 29%
    19:00 +30°C° 0 mm 3 mps 684 mmHg 32%
    20:00 +29°C° 0 mm 3 mps 684 mmHg 36%
    21:00 +28°C° 0 mm 3 mps 684 mmHg 36%
    22:00 +28°C° 0 mm 3 mps 684 mmHg 36%
    23:00 +27°C° 0 mm 3 mps 684 mmHg 37%

    28 September, Friday

    Time Temperature Precipitation Wind Pressure Humidity
    00:00 +27°C° 0 mm 3 mps 683 mmHg 36%
    01:00 +27°C° 0 mm 3 mps 683 mmHg 36%
    02:00 +27°C° 0 mm 3 mps 683 mmHg 35%
    03:00 +26°C° 0 mm 3 mps 683 mmHg 35%
    04:00 +26°C° 0 mm 3 mps 683 mmHg 35%
    05:00 +26°C° 0 mm 3 mps 683 mmHg 35%
    06:00 +27°C° 0.1 mm 3 mps 684 mmHg 35%
    07:00 +28°C° 0.1 mm 4 mps 684 mmHg 34%
    08:00 +29°C° 0.1 mm 4 mps 685 mmHg 33%
    09:00 +30°C° 0.1 mm 4 mps 685 mmHg 30%
    10:00 +33°C° 0.1 mm 4 mps 685 mmHg 27%
    11:00 +34°C° 0.1 mm 4 mps 685 mmHg 24%
    12:00 +35°C° 0 mm 4 mps 685 mmHg 23%
    13:00 +35°C° 0 mm 4 mps 684 mmHg 21%
    14:00 +36°C° 0 mm 4 mps 684 mmHg 20%
    15:00 +35°C° 0 mm 4 mps 684 mmHg 21%
    16:00 +35°C° 0 mm 4 mps 684 mmHg 22%
    17:00 +34°C° 0 mm 4 mps 684 mmHg 23%
    18:00 +33°C° 0 mm 4 mps 684 mmHg 25%
    19:00 +32°C° 0 mm 4 mps 684 mmHg 26%
    20:00 +30°C° 0 mm 4 mps 684 mmHg 28%
    21:00 +30°C° 0 mm 3 mps 684 mmHg 27%
    22:00 +30°C° 0 mm 3 mps 684 mmHg 27%
    23:00 +30°C° 0 mm 3 mps 684 mmHg 26%

    29 September, Saturday

    Time Temperature Precipitation Wind Pressure Humidity
    00:00 +30°C° 0 mm 3 mps 683 mmHg 27%
    01:00 +30°C° 0 mm 3 mps 683 mmHg 28%
    02:00 +29°C° 0 mm 3 mps 683 mmHg 29%
    03:00 +29°C° 0 mm 3 mps 683 mmHg 31%
    04:00 +28°C° 0 mm 3 mps 683 mmHg 33%
    05:00 +28°C° 0 mm 4 mps 683 mmHg 35%
    06:00 +29°C° 0 mm 4 mps 683 mmHg 33%
    07:00 +30°C° 0 mm 3 mps 684 mmHg 31%
    08:00 +31°C° 0 mm 3 mps 684 mmHg 30%
    09:00 +33°C° 0 mm 4 mps 684 mmHg 26%
    10:00 +35°C° 0 mm 4 mps 684 mmHg 22%
    11:00 +37°C° 0 mm 4 mps 684 mmHg 18%
    12:00 +37°C° 0 mm 4 mps 684 mmHg 17%
    13:00 +38°C° 0 mm 4 mps 684 mmHg 16%
    14:00 +38°C° 0 mm 4 mps 683 mmHg 15%
    15:00 +39°C° 0 mm 5 mps 683 mmHg 16%
    16:00 +37°C° 0 mm 5 mps 683 mmHg 16%
    17:00 +36°C° 0 mm 5 mps 683 mmHg 17%
    18:00 +35°C° 0 mm 4 mps 683 mmHg 19%
    19:00 +34°C° 0 mm 4 mps 684 mmHg 21%
    20:00 +33°C° 0 mm 3 mps 684 mmHg 24%
    21:00 +31°C° 0 mm 3 mps 684 mmHg 24%
    22:00 +31°C° 0 mm 3 mps 684 mmHg 25%
    23:00 +30°C° 0 mm 3 mps 684 mmHg 25%

    30 September, Sunday

    Time Temperature Precipitation Wind Pressure Humidity
    00:00 +30°C° 0 mm 3 mps 683 mmHg 26%
    01:00 +30°C° 0 mm 3 mps 683 mmHg 27%
    02:00 +29°C° 0 mm 3 mps 683 mmHg 27%
    03:00 +29°C° 0 mm 3 mps 683 mmHg 29%
    04:00 +29°C° 0 mm 3 mps 683 mmHg 30%
    05:00 +28°C° 0 mm 3 mps 683 mmHg 31%
    06:00 +29°C° 0 mm 3 mps 684 mmHg 30%
    07:00 +30°C° 0 mm 3 mps 684 mmHg 29%
    08:00 +31°C° 0 mm 3 mps 685 mmHg 28%
    09:00 +32°C° 0 mm 4 mps 684 mmHg 26%
    10:00 +33°C° 0 mm 4 mps 684 mmHg 24%
    11:00 +34°C° 0 mm 5 mps 684 mmHg 22%
    12:00 +35°C° 0 mm 5 mps 684 mmHg 21%
    13:00 +35°C° 0 mm 4 mps 684 mmHg 21%
    14:00 +36°C° 0 mm 4 mps 683 mmHg 20%
    15:00 +35°C° 0 mm 4 mps 683 mmHg 22%
    16:00 +34°C° 0 mm 4 mps 683 mmHg 24%
    17:00 +34°C° 0 mm 4 mps 683 mmHg 25%
    18:00 +33°C° 0 mm 4 mps 683 mmHg 28%
    19:00 +31°C° 0 mm 3 mps 684 mmHg 31%
    20:00 +30°C° 0 mm 3 mps 684 mmHg 33%
    21:00 +29°C° 0 mm 3 mps 683 mmHg 35%
    22:00 +28°C° 0 mm 3 mps 683 mmHg 36%
    23:00 +28°C° 0 mm 3 mps 683 mmHg 38%
    Show more